| time (UTC) | temp F | wind direction | speed knots | gust knots | rain 1hr in | rain 24hr in | rain mn in | humidity % | barometer mb |
| 20260507002525 | 53 | 91 | 6.1 | 11.3 | 0.00 | 0.00 | 0.00 | 77 | 1013.0 |
| 20260507001517 | 53 | 98 | 6.1 | 11.3 | 0.00 | 0.00 | 0.00 | 76 | 1013.2 |
| 20260507000612 | 53 | 95 | 7.8 | 13.0 | 0.00 | 0.00 | 0.00 | 76 | 1013.2 |
| 20260506235526 | 53 | 81 | 7.0 | 13.9 | 0.00 | 0.00 | 0.00 | 76 | 1013.2 |
| 20260506234541 | 53 | 79 | 5.2 | 11.3 | 0.00 | 0.00 | 0.00 | 76 | 1013.2 |
| 20260506233535 | 53 | 78 | 6.1 | 11.3 | 0.00 | 0.00 | 0.00 | 77 | 1013.3 |
| 20260506232528 | 53 | 85 | 6.1 | 12.2 | 0.00 | 0.00 | 0.00 | 77 | 1013.3 |
| 20260506231545 | 53 | 100 | 7.0 | 13.0 | 0.00 | 0.00 | 0.00 | 78 | 1013.4 |
| 20260506230518 | 53 | 76 | 7.8 | 13.9 | 0.00 | 0.00 | 0.00 | 79 | 1013.4 |
| 20260506225532 | 53 | 89 | 6.1 | 12.2 | 0.00 | 0.00 | 0.00 | 80 | 1013.4 |
| 20260506224547 | 53 | 98 | 7.0 | 13.9 | 0.00 | 0.00 | 0.00 | 81 | 1013.2 |
| 20260506223521 | 53 | 87 | 7.0 | 12.2 | 0.00 | 0.00 | 0.00 | 81 | 1013.3 |
| 20260506222537 | 53 | 97 | 5.2 | 11.3 | 0.00 | 0.00 | 0.00 | 80 | 1013.4 |
| 20260506221529 | 53 | 107 | 4.3 | 8.7 | 0.00 | 0.00 | 0.00 | 81 | 1013.3 |
| 20260506220523 | 52 | 108 | 3.5 | 6.1 | 0.00 | 0.00 | 0.00 | 81 | 1013.2 |
| 20260506215518 | 53 | 97 | 5.2 | 9.6 | 0.00 | 0.00 | 0.00 | 81 | 1013.2 |
| 20260506214532 | 53 | 100 | 4.3 | 7.8 | 0.00 | 0.00 | 0.00 | 80 | 1013.3 |
| 20260506213607 | 53 | 105 | 4.3 | 7.0 | 0.00 | 0.00 | 0.00 | 81 | 1013.2 |
| 20260506212541 | 53 | 108 | 3.5 | 7.0 | 0.00 | 0.00 | 0.00 | 81 | 1013.1 |
| 20260506211516 | 54 | 94 | 3.5 | 7.0 | 0.00 | 0.00 | 0.00 | 81 | 1013.0 |
| 20260506210552 | 54 | 96 | 4.3 | 7.8 | 0.00 | 0.00 | 0.00 | 81 | 1012.8 |
| 20260506205525 | 55 | 111 | 4.3 | 8.7 | 0.00 | 0.00 | 0.00 | 81 | 1012.5 |
| 20260506204520 | 55 | 107 | 4.3 | 7.0 | 0.00 | 0.00 | 0.00 | 80 | 1012.5 |
| 20260506203535 | 56 | 101 | 5.2 | 9.6 | 0.00 | 0.00 | 0.00 | 78 | 1012.3 |
| 20260506202529 | 56 | 108 | 5.2 | 8.7 | 0.00 | 0.00 | 0.00 | 76 | 1012.2 |
| 20260506201543 | 57 | 120 | 5.2 | 7.8 | 0.00 | 0.00 | 0.00 | 75 | 1012.1 |
| 20260506200538 | 57 | 98 | 6.1 | 11.3 | 0.00 | 0.00 | 0.00 | 74 | 1011.9 |
| 20260506195533 | 58 | 113 | 6.1 | 12.2 | 0.00 | 0.00 | 0.00 | 73 | 1011.7 |
| 20260506194546 | 58 | 106 | 7.0 | 11.3 | 0.00 | 0.00 | 0.00 | 71 | 1011.5 |
| 20260506193520 | 58 | 96 | 6.1 | 14.8 | 0.00 | 0.00 | 0.00 | 70 | 1011.3 |
| 20260506192534 | 58 | 117 | 5.2 | 9.6 | 0.00 | 0.00 | 0.00 | 65 | 1011.3 |
| 20260506191531 | 61 | 115 | 2.6 | 9.6 | 0.00 | 0.00 | 0.00 | 43 | 1011.1 |
| 20260506190524 | 64 | 136 | 1.7 | 3.5 | 0.00 | 0.00 | 0.00 | 38 | 1011.0 |
| 20260506185516 | 65 | 144 | 0.0 | 0.9 | 0.00 | 0.00 | 0.00 | 35 | 1010.9 |
| 20260506184531 | 67 | 144 | 0.0 | 0.9 | 0.00 | 0.00 | 0.00 | 33 | 1010.9 |
| 20260506183526 | 67 | 144 | 0.0 | 0.9 | 0.00 | 0.00 | 0.00 | 32 | 1010.7 |
| 20260506182520 | 67 | 135 | 0.0 | 1.7 | 0.00 | 0.00 | 0.00 | 32 | 1010.7 |
| 20260506181535 | 67 | 209 | 0.9 | 3.5 | 0.00 | 0.00 | 0.00 | 32 | 1010.6 |
| 20260506180530 | 68 | 250 | 1.7 | 3.5 | 0.00 | 0.00 | 0.00 | 32 | 1010.7 |
| 20260506175545 | 69 | 275 | 1.7 | 2.6 | 0.00 | 0.00 | 0.00 | 32 | 1010.7 |
| 20260506174517 | 69 | 272 | 0.0 | 0.9 | 0.00 | 0.00 | 0.00 | 30 | 1010.8 |
| 20260506173532 | 68 | 222 | 2.6 | 5.2 | 0.00 | 0.00 | 0.00 | 32 | 1010.7 |
| 20260506172528 | 68 | 104 | 0.9 | 1.7 | 0.00 | 0.00 | 0.00 | 32 | 1010.8 |
| 20260506171521 | 67 | 105 | 0.9 | 1.7 | 0.00 | 0.00 | 0.00 | 33 | 1010.8 |
| 20260506170535 | 68 | 158 | 1.7 | 3.5 | 0.00 | 0.00 | 0.00 | 32 | 1010.8 |
| 20260506165529 | 67 | 212 | 2.6 | 3.5 | 0.00 | 0.00 | 0.00 | 32 | 1010.9 |
| 20260506164523 | 68 | 215 | 1.7 | 6.1 | 0.00 | 0.00 | 0.00 | 32 | 1011.1 |
| 20260506163519 | 67 | 260 | 2.6 | 5.2 | 0.00 | 0.00 | 0.00 | 33 | 1011.0 |
| 20260506162532 | 66 | 282 | 1.7 | 5.2 | 0.00 | 0.00 | 0.00 | 34 | 1011.0 |
| 20260506161527 | 66 | 336 | 0.9 | 1.7 | 0.00 | 0.00 | 0.00 | 34 | 1011.0 |
| 20260506160521 | 67 | 79 | 0.9 | 2.6 | 0.00 | 0.00 | 0.00 | 34 | 1010.9 |
| 20260506155535 | 65 | 35 | 1.7 | 1.7 | 0.00 | 0.00 | 0.00 | 35 | 1011.1 |
| 20260506154531 | 64 | 329 | 1.7 | 2.6 | 0.00 | 0.00 | 0.00 | 37 | 1011.1 |
| 20260506153529 | 64 | 255 | 0.9 | 1.7 | 0.00 | 0.00 | 0.00 | 39 | 1011.1 |
| 20260506152519 | 65 | 208 | 0.9 | 1.7 | 0.00 | 0.00 | 0.00 | 35 | 1011.0 |
| 20260506151534 | 66 | 192 | 1.7 | 3.5 | 0.00 | 0.00 | 0.00 | 35 | 1011.2 |
| 20260506150527 | 66 | 215 | 1.7 | 3.5 | 0.00 | 0.00 | 0.00 | 35 | 1011.4 |
| 20260506145522 | 64 | 243 | 3.5 | 5.2 | 0.00 | 0.00 | 0.00 | 36 | 1011.5 |
| 20260506144536 | 66 | 217 | 3.5 | 5.2 | 0.00 | 0.00 | 0.00 | 35 | 1011.5 |
| 20260506143530 | 67 | 211 | 4.3 | 8.7 | 0.00 | 0.00 | 0.00 | 35 | 1011.5 |
| 20260506142524 | 66 | 173 | 1.7 | 3.5 | 0.00 | 0.00 | 0.00 | 35 | 1011.7 |
| 20260506141518 | 65 | 168 | 1.7 | 2.6 | 0.00 | 0.00 | 0.00 | 37 | 1011.9 |
| 20260506140533 | 64 | 237 | 1.7 | 3.5 | 0.00 | 0.00 | 0.00 | 37 | 1011.9 |
| 20260506135526 | 65 | 279 | 2.6 | 6.1 | 0.00 | 0.00 | 0.00 | 37 | 1012.0 |
| 20260506134521 | 67 | 246 | 3.5 | 6.1 | 0.00 | 0.00 | 0.00 | 36 | 1012.0 |
| 20260506133516 | 65 | 201 | 0.9 | 3.5 | 0.00 | 0.00 | 0.00 | 35 | 1012.1 |
| 20260506132530 | 67 | 171 | 2.6 | 5.2 | 0.00 | 0.00 | 0.00 | 34 | 1012.2 |
| 20260506131525 | 67 | 220 | 3.5 | 7.8 | 0.00 | 0.00 | 0.00 | 35 | 1012.2 |
| 20260506130518 | 65 | 176 | 3.5 | 7.8 | 0.00 | 0.00 | 0.00 | 36 | 1012.2 |
| 20260506125533 | 68 | 118 | 2.6 | 6.1 | 0.00 | 0.00 | 0.00 | 34 | 1012.3 |
| 20260506124527 | 67 | 181 | 3.5 | 7.0 | 0.00 | 0.00 | 0.00 | 35 | 1012.3 |
| 20260506123520 | 66 | 193 | 3.5 | 6.1 | 0.00 | 0.00 | 0.00 | 35 | 1012.4 |
| 20260506122534 | 65 | 130 | 3.5 | 6.1 | 0.00 | 0.00 | 0.00 | 35 | 1012.4 |
| 20260506121527 | 65 | 153 | 2.6 | 3.5 | 0.00 | 0.00 | 0.00 | 35 | 1012.5 |
| 20260506120522 | 66 | 160 | 2.6 | 6.1 | 0.00 | 0.00 | 0.00 | 34 | 1012.7 |
| 20260506115518 | 66 | 189 | 1.7 | 5.2 | 0.00 | 0.00 | 0.00 | 34 | 1012.8 |
| 20260506114532 | 65 | 338 | 2.6 | 7.0 | 0.00 | 0.00 | 0.00 | 35 | 1012.9 |
| 20260506113525 | 65 | 48 | 0.9 | 1.7 | 0.00 | 0.00 | 0.00 | 35 | 1012.9 |
| 20260506112519 | 65 | 127 | 2.6 | 7.0 | 0.00 | 0.00 | 0.00 | 36 | 1012.9 |
| 20260506111534 | 65 | 243 | 3.5 | 6.1 | 0.00 | 0.00 | 0.00 | 37 | 1013.0 |
| 20260506110529 | 65 | 313 | 1.7 | 3.5 | 0.00 | 0.00 | 0.00 | 37 | 1013.1 |
| 20260506105522 | 64 | 21 | 2.6 | 7.0 | 0.00 | 0.00 | 0.00 | 37 | 1013.2 |
| 20260506104516 | 64 | 218 | 1.7 | 3.5 | 0.00 | 0.00 | 0.00 | 36 | 1013.2 |
| 20260506103530 | 64 | 116 | 3.5 | 5.2 | 0.00 | 0.00 | 0.00 | 37 | 1013.2 |
| 20260506102526 | 64 | 85 | 1.7 | 6.1 | 0.00 | 0.00 | 0.00 | 38 | 1013.2 |
| 20260506101520 | 63 | 316 | 1.7 | 3.5 | 0.00 | 0.00 | 0.00 | 40 | 1013.3 |
| 20260506100614 | 62 | 304 | 2.6 | 6.1 | 0.00 | 0.00 | 0.00 | 41 | 1013.3 |
| 20260506095528 | 60 | 16 | 0.9 | 1.7 | 0.00 | 0.00 | 0.00 | 44 | 1013.3 |
| 20260506094524 | 60 | 314 | 1.7 | 5.2 | 0.00 | 0.00 | 0.00 | 42 | 1013.3 |
| 20260506093517 | 61 | 315 | 2.6 | 3.5 | 0.00 | 0.00 | 0.00 | 42 | 1013.3 |
| 20260506092532 | 60 | 294 | 1.7 | 3.5 | 0.00 | 0.00 | 0.00 | 46 | 1013.3 |
| 20260506091526 | 60 | 10 | 0.9 | 2.6 | 0.00 | 0.00 | 0.00 | 50 | 1013.2 |
| 20260506090521 | 60 | 114 | 2.6 | 3.5 | 0.00 | 0.00 | 0.00 | 56 | 1013.2 |
| 20260506085715 | 59 | 98 | 0.9 | 3.5 | 0.00 | 0.00 | 0.00 | 58 | 1013.3 |
| 20260506084530 | 59 | 135 | 2.6 | 5.2 | 0.00 | 0.00 | 0.00 | 61 | 1013.3 |
| 20260506083524 | 58 | 63 | 0.9 | 3.5 | 0.00 | 0.00 | 0.00 | 63 | 1013.2 |
| 20260506082518 | 57 | 68 | 2.6 | 5.2 | 0.00 | 0.00 | 0.00 | 65 | 1013.3 |
| 20260506081532 | 56 | 84 | 3.5 | 6.1 | 0.00 | 0.00 | 0.00 | 65 | 1013.3 |
| 20260506080526 | 56 | 80 | 3.5 | 7.0 | 0.00 | 0.00 | 0.00 | 66 | 1013.4 |
| 20260506073529 | 53 | 75 | 4.3 | 7.0 | 0.00 | 0.00 | 0.00 | 69 | 1013.6 |
| 20260506072524 | 53 | 72 | 2.6 | 7.8 | 0.00 | 0.00 | 0.00 | 70 | 1013.5 |
| 20260506071519 | 52 | 66 | 2.6 | 5.2 | 0.00 | 0.00 | 0.00 | 71 | 1013.6 |
| 20260506070533 | 50 | 61 | 2.6 | 5.2 | 0.00 | 0.00 | 0.00 | 73 | 1013.6 |
| 20260506061525 | 45 | 61 | 1.7 | 2.6 | 0.00 | 0.00 | 0.00 | 85 | 1013.4 |
| 20260506060519 | 44 | 39 | 0.9 | 2.6 | 0.00 | 0.00 | 0.00 | 87 | 1013.3 |
| 20260506050526 | 41 | 92 | 0.9 | 1.7 | 0.00 | 0.00 | 0.00 | 87 | 1013.0 |
| 20260506044536 | 42 | 74 | 0.0 | 0.9 | 0.00 | 0.00 | 0.00 | 88 | 1012.8 |
| 20260506043529 | 42 | 74 | 0.0 | 0.9 | 0.00 | 0.00 | 0.00 | 88 | 1012.9 |
| 20260506042525 | 41 | 74 | 0.0 | 0.9 | 0.00 | 0.00 | 0.00 | 86 | 1012.9 |
| 20260506041520 | 40 | 0.0 | 0.0 | 0.00 | 0.00 | 0.00 | 86 | 1013.0 | |
| 20260506040554 | 38 | 60 | 1.7 | 2.6 | 0.00 | 0.00 | 0.00 | 87 | 1013.0 |
| 20260506034522 | 38 | 57 | 0.9 | 1.7 | 0.00 | 0.00 | 0.00 | 86 | 1013.2 |
| 20260506033517 | 38 | 57 | 0.0 | 0.9 | 0.00 | 0.00 | 0.00 | 85 | 1013.2 |
| 20260506032555 | 39 | 61 | 0.0 | 0.9 | 0.00 | 0.00 | 0.00 | 84 | 1013.3 |
| 20260506031527 | 40 | 50 | 0.9 | 2.6 | 0.00 | 0.00 | 0.00 | 84 | 1013.2 |
| 20260506030525 | 40 | 22 | 0.9 | 0.9 | 0.00 | 0.00 | 0.00 | 83 | 1013.3 |
| 20260506025533 | 40 | 0.0 | 0.0 | 0.00 | 0.00 | 0.00 | 82 | 1013.2 | |
| 20260506024527 | 41 | 54 | 0.9 | 1.7 | 0.00 | 0.00 | 0.00 | 82 | 1013.2 |
| 20260506023522 | 41 | 117 | 0.0 | 1.7 | 0.00 | 0.00 | 0.00 | 80 | 1013.2 |
| 20260506022516 | 42 | 83 | 0.9 | 1.7 | 0.00 | 0.00 | 0.00 | 78 | 1013.0 |
| 20260506021530 | 42 | 0.0 | 0.0 | 0.00 | 0.00 | 0.00 | 79 | 1013.1 | |
| 20260506020525 | 42 | 11 | 0.9 | 1.7 | 0.00 | 0.00 | 0.00 | 78 | 1013.0 |
| 20260506015519 | 44 | 71 | 0.9 | 3.5 | 0.00 | 0.00 | 0.00 | 74 | 1012.9 |
| 20260506014614 | 43 | 82 | 0.9 | 2.6 | 0.00 | 0.00 | 0.00 | 77 | 1012.8 |
| 20260506013528 | 42 | 347 | 0.0 | 0.9 | 0.00 | 0.00 | 0.00 | 79 | 1012.7 |
| 20260506012522 | 42 | 57 | 0.0 | 0.9 | 0.00 | 0.00 | 0.00 | 79 | 1012.9 |
| 20260506011516 | 42 | 63 | 1.7 | 1.7 | 0.00 | 0.00 | 0.00 | 80 | 1012.9 |
| 20260506010532 | 41 | 59 | 2.6 | 3.5 | 0.00 | 0.00 | 0.00 | 82 | 1013.1 |
| 20260506005525 | 42 | 67 | 3.5 | 7.8 | 0.00 | 0.00 | 0.00 | 81 | 1013.2 |
| 20260506004520 | 41 | 75 | 2.6 | 5.2 | 0.00 | 0.00 | 0.00 | 85 | 1013.4 |
| 20260506003534 | 42 | 54 | 1.7 | 2.6 | 0.00 | 0.00 | 0.00 | 84 | 1013.4 |